Showing default

DIADEME 1, 2674

Orbit data source: Space-Track

DIADEME 1, 2674 is a payload satellite owned by CNES (FR) in LEO that was launched on Wed, 08 Feb 1967 UTC via a DIAMANT A launch vehicle from the Hamma Guira Space Track Range (HGSTR). Payload-class satellites include a variety of spacecraft equipped with specific instruments for various scientific and technological missions. These include communications satellites like Starlink; space stations such as the ISS; scientific satellites like the Hubble; Earth observation satellites from companies like Planet Labs, Umbra, and HawkEye 360; GPS; miniature CubeSats for education and research; and military/defense satellites.

Loading next visibility...
Identifier
2674, 1967-011A
Orbit
LEO
Country
Flag of FRFR
Related business
Manufacturer
CNES
Mission
Spacecraft
Bus & Motor
D-1, Unknown motor
Mass
23 kg wet, 23 kg dry
Launch date (UTC)
1967-02-08 (59 years ago)
Launch vehicle
DIAMANT A
Launch site
Hamma Guira Space Track Range (HGSTR)
Object type
Payload
Rocket body
Debris
Shape & HBR
Unknown
Radar Cross Section
Medium (>0.1 m² and <1 m²)

Expand to show TLE details & history
Last TLE update: 10 hours ago

TLE from 10 hours ago
0 DIADEME 1
1 02674U 67011A   25309.06698583  .00008444  00000-0  95524-3 0  9996
2 02674  39.9160  86.8378 0213665 146.7093 214.7334 14.71293197 57046
Epoch: 2025-11-05T01:36Z
TLE epoch observation values (Epoch: 2025-11-05T01:36:27.575Z)
Latitude
-0.00001°
Longitude
18.17791°
Altitude
780.917 km
Speed
7.399 km/s
True Right ascension
05h 47m 21s
True Declination
0° 00' 00"
Sunlit
Object was in full shadow at epoch
Visualization orbit readout
Latitude
Unknown
Longitude
Unknown
Altitude
Unknown
Speed
Unknown
Apparent Right ascension
Unknown
Apparent Declination
Unknown
Sunlit
N/A
Visualization observer readout
Local Sidereal Time
07:50:04
Azimuth
Unknown
Elevation
Unknown
Doppler factor
Unknown
Orbital elements
Apogee altitude
809.71 km
Perigee altitude
508.977 km
Semi-major axis
7,037.48 km
Eccentricity
0.02137
Inclination
39.916°
RAAN
86.8378°
Arg. of periapsis
146.7093°
True anomaly
213.36851°
Mean anomaly
214.7334°
Eccentric anomaly
214.04798°
Mean motion
3.67635 °/min
Orbital period
97.92 mins
BSTAR
0.00095524
Loading maneuver chart data...
Computing Atmospheric mass density...

Documentation

Showing up to 5 results
|